Location: Capelle
(50.3413°N, 1.9974°E)
Time: 07:07:26
(UTC+00:00)

Cosmos 2341 Rocket - Pass Details

Date: 12 January 2026
Orbit: 967 x 1004 km, 82.9° (Epoch: 18 February)

Event Time Altitude Azimuth Distance (km) Brightness Sun altitude
Rises 17:53:37 0° 349° (N) 3,732 7.0 -15.4°
Reaches altitude 10° 17:56:10 10° 349° (N) 2,774 6.3 -15.8°
Maximum altitude 18:02:32 83° 264° (W) 1,003 4.1 -16.8°
Drops below altitude 10° 18:08:49 10° 176° (S) 2,729 6.4 -17.7°
Sets 18:11:18 0° 176° (S) 3,668 7.1 -18.1°
